Wind_Speed
3 2 2 3 3 4 5 7 10 12 14 15 16 15 14 13 11 13 12 23 22 18 19 15 13 11 7 6 3 2 2 3 3 2 5 4 5 5 5 5 6 6 8
2 3 3 3 5 5 4 5 5 7 11 15 15 13 13 13 13 11 11 23 22 20 21 18 16 12 10 9 7 5 3 3 1 1 2 3 3 3 2 2 4 4 5
5 2 3 5 6 6 7 8 7 7 7 13 15 14 15 15 16 15 14 21 24 23 23 21 19 15 13 12 9 7 6 6 5 5 3 3 6 6 4 3 2 3 4
6 5 4 5 5 6 7 7 9 9 9 10 13 13 12 11 14 17 19 19 26 26 24 22 20 18 16 14 12 10 9 7 8 9 9 7 6 8 8 7 5 3 2
5 4 3 5 5 5 6 7 6 8 10 11 10 11 11 10 13 12 17 19 23 27 23 21 20 18 17 17 16 14 13 13 12 11 11 12 10 10 11 10 9 8 6
8 7 6 4 2 4 4 5 5 5 8 11 12 11 12 11 8 10 17 22 28 28 22 20 19 18 19 18 15 15 14 13 12 13 13 14 14 14 13 12 11 10 10
7 7 8 6 3 2 3 3 4 4 5 7 10 11 12 14 12 10 8 13 26 23 21 19 19 20 20 19 16 14 13 13 11 13 12 13 14 14 15 15 14 13 13
10 8 7 6 5 3 1 2 4 3 5 5 6 8 10 11 11 8 10 10 12 14 16 17 19 20 19 17 15 14 15 15 15 14 14 14 12 13 15 16 16 17 17
12 9 11 9 4 3 5 3 2 5 5 5 7 6 7 8 10 11 10 10 13 13 14 13 16 17 16 16 16 16 17 15 15 15 13 14 15 15 16 17 17 19 19
15 14 11 9 7 4 4 6 6 5 7 8 7 6 6 7 8 11 15 17 18 17 16 16 16 18 19 19 17 16 15 18 18 16 15 14 15 16 16 18 19 20 20
15 16 12 7 3 3 4 4 3 7 7 7 7 7 6 7 8 8 12 16 17 19 19 19 17 18 19 18 18 17 15 15 15 13 13 12 13 14 17 18 20 20 21
14 11 9 8 2 7 10 12 9 3 8 9 8 7 5 6 6 8 9 11 15 16 18 17 16 17 17 17 17 15 13 14 12 11 12 14 14 17 17 18 19 21 22
14 11 8 7 9 10 11 11 6 5 7 7 7 8 8 7 7 8 9 11 12 14 14 13 14 14 14 15 15 14 14 13 14 13 14 14 14 17 17 18 19 21 23
20 16 15 14 14 15 13 7 6 1 3 4 4 5 6 7 7 8 8 10 11 12 13 13 11 11 10 12 13 13 12 13 13 12 13 14 15 17 18 18 20 20 22
25 21 21 14 14 17 11 12 9 9 10 8 8 6 8 8 8 9 9 10 11 12 12 12 11 9 10 11 11 11 12 13 12 13 15 17 18 18 17 19 22 22 21
31 28 26 20 21 19 21 17 15 16 13 11 11 12 12 13 12 10 10 10 11 11 13 15 14 13 14 13 11 12 12 12 13 15 17 18 18 18 19 22 22 26 29
32 27 26 27 25 24 23 25 23 24 21 19 14 12 13 14 17 15 14 14 13 11 14 16 16 16 15 15 14 14 14 15 16 18 18 18 19 22 25 27 30 30 32
31 32 32 30 29 28 27 23 27 25 29 26 23 20 17 16 18 19 19 18 15 15 15 16 17 17 17 16 16 15 16 17 20 21 20 21 24 24 27 29 31 31 33
35 35 35 34 32 31 29 28 26 23 31 34 31 30 27 22 20 21 23 23 21 19 18 18 18 18 17 17 18 18 20 21 23 23 23 24 25 26 29 31 32 33 34
46 44 41 39 37 36 34 32 31 34 34 33 35 34 32 28 26 25 26 26 25 24 21 19 20 20 19 19 21 23 25 24 25 24 26 28 29 30 29 30 31 33 34
55 54 48 45 44 41 40 40 41 41 41 42 42 40 40 39 33 31 26 25 27 27 26 25 24 24 24 23 25 27 27 26 25 27 30 31 31 29 29 29 33 34 36
59 60 57 53 51 50 48 48 48 48 45 47 44 43 43 46 45 37 31 28 27 30 30 30 29 30 30 31 31 30 28 29 30 31 32 30 28 28 29 31 35 34 37
48 48 48 58 54 59 55 51 50 51 50 50 48 46 48 48 52 45 37 32 30 30 32 34 36 34 35 34 34 36 37 38 30 32 31 31 29 28 29 33 36 36 35
45 50 50 42 44 48 52 49 46 49 48 48 45 45 49 55 53 39 49 24 29 34 33 38 32 36 41 38 43 46 49 41 34 32 29 30 32 28 28 31 35 32 25
53 56 63 56 51 53 47 44 43 46 50 52 48 48 47 46 42 37 31 36 36 39 33 30 30 35 42 40 39 44 48 39 36 30 27 29 28 25 26 29 29 24 19
48 50 51 52 56 51 55 54 52 54 57 55 50 48 46 46 44 41 38 43 38 42 39 38 37 37 37 37 39 42 46 33 33 26 27 27 24 22 24 25 25 22 18
Wind_Direction
286 287 167 175 193 185 197 201 212 219 221 220 212 205 206 197 192 211 211 205 195 198 199 206 212 210 199 205 226 168 163 100 59 67 44 59 47 30 34 53 55 38 53
288 253 220 196 223 224 209 210 208 207 219 223 220 212 212 212 210 209 198 194 195 199 205 208 218 216 214 223 226 230 223 278 324 32 39 2 339 347 2 7 24 24 33
354 259 233 208 217 228 234 235 226 207 218 214 216 221 224 221 223 224 218 213 204 203 209 211 217 221 221 223 231 234 237 247 268 290 311 307 299 310 309 301 342 353 4
329 341 247 217 201 222 231 232 231 220 207 215 225 228 222 228 243 243 245 224 213 210 213 215 216 221 226 228 227 229 219 232 262 277 280 285 275 287 299 305 305 292 297
330 332 311 232 198 203 216 237 232 227 222 218 222 223 223 242 238 250 231 224 211 208 214 221 221 223 229 230 230 234 230 235 243 257 263 275 279 282 283 291 296 297 287
327 336 331 318 232 205 209 216 232 229 220 225 226 227 228 242 251 262 231 235 217 212 213 221 228 227 234 234 240 249 249 249 255 256 251 255 275 282 284 283 284 286 289
340 337 316 304 307 228 199 205 228 235 232 232 232 230 234 246 266 245 199 178 185 203 221 228 233 239 242 242 242 250 250 252 249 257 260 264 268 273 273 276 281 283 280
301 320 307 298 299 324 322 235 231 234 240 241 248 241 239 251 257 263 206 200 202 214 223 230 233 234 237 244 248 251 255 256 255 259 265 269 269 264 264 271 277 279 281
291 289 288 287 285 331 320 307 275 243 242 227 234 240 247 243 248 244 231 225 223 225 235 237 229 228 238 246 250 257 257 255 258 262 273 277 265 263 268 273 275 275 281
282 281 274 284 303 320 24 344 312 290 246 231 220 234 242 243 234 239 241 233 233 240 241 240 242 242 246 247 248 248 253 258 259 258 265 268 269 268 270 269 270 274 280
271 270 285 300 299 313 345 358 343 282 265 238 224 221 236 241 238 237 239 247 244 243 241 242 244 247 249 245 242 239 244 255 253 257 256 261 263 263 265 269 272 275 278
262 252 275 284 227 302 315 324 320 273 248 244 236 235 229 241 241 238 245 248 249 245 243 244 244 242 238 233 230 225 229 238 242 239 248 251 254 259 261 266 271 276 277
245 237 243 239 241 265 278 297 301 251 219 229 238 245 249 247 241 233 239 251 254 250 245 241 239 237 232 229 229 226 231 236 238 236 246 255 261 270 273 275 275 276 279
255 244 245 241 259 231 243 242 151 127 171 191 219 244 248 257 254 242 236 241 248 250 242 237 236 235 235 234 234 233 236 243 247 251 259 263 266 267 271 274 275 276 276
245 245 258 245 249 229 229 205 224 265 286 282 264 257 254 250 249 243 237 239 241 241 239 231 227 232 234 235 233 235 234 241 251 257 261 266 268 273 280 285 283 278 280
244 250 248 246 234 237 240 242 250 244 266 262 271 267 269 272 256 241 236 240 241 242 239 235 238 236 233 237 236 237 242 245 247 251 256 263 269 270 269 291 295 287 290
245 242 239 245 250 254 254 247 247 243 254 257 264 275 269 264 267 262 245 240 238 245 249 247 244 236 232 236 244 249 249 246 249 255 258 264 273 278 279 292 298 295 302
230 236 241 242 248 253 253 253 244 238 243 251 258 265 269 271 260 256 256 245 241 240 245 249 243 238 241 245 247 247 251 255 256 260 263 270 277 285 288 297 294 296 302
232 232 237 244 251 251 249 252 252 240 242 248 255 262 267 269 271 260 253 258 248 242 241 244 251 246 246 248 253 258 260 259 261 262 267 274 279 286 292 296 300 302 302
234 234 236 238 243 250 250 249 253 261 263 255 257 261 264 267 265 262 259 256 259 254 248 247 243 243 251 258 267 269 268 267 267 268 269 274 279 283 287 291 299 300 302
233 235 231 237 241 243 243 244 252 259 264 264 262 262 258 263 258 257 251 253 255 256 251 245 245 249 254 264 272 271 268 270 271 270 271 276 284 288 294 295 302 304 306
233 237 233 231 235 234 236 245 255 257 256 254 256 259 261 258 258 247 244 243 244 249 249 248 246 247 256 262 263 263 265 269 270 269 269 273 282 289 292 296 298 301 305
250 252 248 229 237 235 240 241 252 257 260 258 258 256 256 261 248 241 236 245 251 252 254 254 251 251 255 262 267 269 265 263 260 263 268 276 282 286 292 296 303 301 295
248 233 242 240 244 243 242 243 249 257 259 258 261 263 266 269 277 268 274 257 233 254 261 252 251 260 253 258 262 263 266 268 262 263 270 278 285 287 297 305 303 299 286
250 247 248 260 246 248 240 239 247 257 257 259 261 264 262 263 270 271 251 256 255 257 270 275 274 275 285 289 291 292 294 273 250 259 273 282 286 294 309 309 298 297 284
252 252 251 251 254 256 254 243 257 257 258 258 259 260 260 262 259 258 256 259 257 252 254 264 269 275 284 289 293 296 303 270 250 260 272 275 285 291 298 303 300 286 285
Height
5905 5904 5904 5904 5905 5905 5906 5907 5909 5911 5913 5913 5915 5916 5918 5921 5923 5924 5925 5928 5931 5934 5935 5937 5938 5940 5942 5943 5943 5943 5943 5944 5944 5944 5944 5943 5943 5942 5942 5941 5940 5939 5937
5905 5904 5904 5904 5904 5905 5906 5907 5908 5910 5911 5912 5914 5916 5918 5919 5921 5922 5923 5926 5928 5931 5934 5935 5936 5938 5940 5942 5943 5944 5943 5943 5943 5944 5944 5944 5944 5943 5943 5943 5942 5941 5940
5906 5905 5905 5904 5905 5905 5905 5906 5908 5909 5909 5911 5912 5914 5916 5918 5919 5920 5922 5924 5926 5928 5931 5934 5935 5937 5938 5939 5941 5942 5942 5942 5942 5942 5943 5944 5943 5943 5944 5944 5943 5942 5941
5907 5906 5906 5905 5904 5905 5905 5905 5906 5908 5909 5910 5911 5913 5914 5916 5917 5917 5919 5921 5923 5926 5929 5932 5933 5935 5936 5937 5938 5940 5941 5941 5941 5942 5942 5943 5943 5944 5944 5943 5943 5943 5942
5907 5906 5905 5905 5904 5904 5904 5904 5905 5906 5907 5908 5910 5911 5912 5913 5913 5913 5914 5917 5919 5923 5927 5930 5932 5933 5934 5935 5936 5936 5938 5940 5941 5942 5942 5942 5942 5942 5942 5942 5942 5942 5941
5908 5906 5905 5905 5904 5904 5904 5903 5904 5904 5905 5906 5907 5909 5910 5910 5911 5910 5910 5912 5916 5919 5924 5927 5929 5931 5932 5934 5934 5936 5938 5939 5940 5941 5942 5942 5941 5941 5941 5940 5940 5940 5940
5907 5906 5905 5904 5904 5903 5903 5903 5903 5903 5903 5904 5905 5907 5907 5908 5909 5909 5909 5908 5912 5917 5920 5924 5926 5927 5929 5931 5933 5935 5936 5937 5938 5938 5939 5940 5940 5939 5938 5938 5938 5938 5939
5906 5905 5905 5903 5902 5902 5902 5902 5902 5902 5902 5903 5903 5904 5905 5906 5907 5908 5909 5910 5913 5917 5919 5921 5922 5923 5925 5928 5930 5931 5933 5933 5935 5936 5936 5936 5936 5936 5936 5936 5936 5936 5935
5904 5904 5903 5902 5901 5901 5901 5901 5901 5901 5901 5901 5902 5902 5903 5903 5905 5906 5908 5910 5912 5914 5916 5918 5919 5921 5923 5925 5926 5928 5929 5930 5931 5932 5932 5932 5933 5933 5933 5932 5932 5932 5931
5901 5900 5901 5900 5899 5899 5900 5899 5899 5899 5899 5899 5900 5901 5901 5901 5902 5903 5904 5906 5908 5910 5911 5914 5916 5919 5920 5921 5922 5924 5925 5926 5927 5928 5928 5928 5929 5929 5929 5928 5927 5927 5926
5900 5899 5897 5897 5897 5897 5897 5898 5898 5897 5898 5898 5898 5899 5899 5899 5900 5901 5902 5903 5904 5906 5907 5909 5912 5914 5916 5917 5918 5919 5921 5921 5922 5923 5924 5924 5924 5924 5923 5923 5922 5922 5921
5896 5897 5896 5895 5895 5895 5895 5894 5894 5894 5895 5896 5897 5897 5898 5897 5898 5898 5899 5900 5901 5902 5904 5906 5908 5909 5911 5912 5913 5915 5916 5916 5917 5918 5918 5918 5918 5918 5918 5917 5917 5917 5916
5895 5895 5895 5894 5893 5893 5892 5893 5892 5892 5892 5893 5894 5894 5895 5895 5896 5896 5896 5897 5898 5899 5901 5902 5903 5905 5907 5909 5911 5911 5911 5912 5913 5913 5913 5914 5914 5914 5914 5914 5913 5912 5911
5892 5892 5892 5893 5892 5891 5891 5891 5891 5892 5891 5891 5891 5891 5891 5892 5892 5893 5894 5894 5895 5897 5898 5900 5901 5903 5905 5907 5907 5908 5908 5908 5908 5908 5909 5909 5909 5909 5909 5908 5907 5907 5906
5885 5886 5887 5889 5888 5889 5889 5889 5889 5889 5889 5889 5889 5888 5887 5888 5888 5889 5890 5891 5892 5894 5896 5897 5898 5900 5902 5903 5903 5904 5904 5904 5904 5904 5905 5905 5904 5904 5903 5903 5901 5900 5900
5880 5880 5881 5882 5883 5884 5884 5885 5886 5885 5885 5884 5884 5884 5884 5884 5884 5885 5886 5887 5889 5891 5893 5894 5895 5896 5897 5898 5899 5899 5900 5901 5900 5900 5899 5899 5898 5897 5896 5896 5894 5893 5892
5872 5873 5874 5875 5876 5877 5878 5878 5879 5881 5881 5880 5879 5879 5879 5879 5880 5881 5881 5882 5884 5886 5888 5890 5890 5891 5892 5893 5894 5895 5894 5894 5895 5894 5893 5893 5892 5891 5890 5889 5886 5885 5882
5861 5864 5866 5867 5867 5868 5870 5871 5872 5873 5873 5874 5873 5872 5873 5874 5874 5875 5876 5877 5878 5880 5882 5884 5885 5886 5886 5887 5888 5888 5888 5889 5888 5887 5887 5887 5886 5885 5883 5881 5879 5877 5874
5849 5851 5853 5856 5858 5859 5860 5862 5863 5864 5866 5867 5868 5868 5868 5869 5869 5869 5870 5871 5873 5874 5875 5878 5880 5881 5881 5881 5881 5881 5881 5881 5880 5880 5880 5880 5879 5879 5876 5873 5870 5867 5864
5834 5837 5838 5843 5846 5848 5849 5850 5852 5853 5855 5857 5859 5861 5862 5863 5863 5862 5863 5865 5866 5868 5870 5872 5873 5874 5875 5875 5875 5875 5875 5876 5876 5875 5873 5872 5871 5869 5868 5865 5861 5859 5855
5819 5823 5825 5829 5834 5837 5838 5839 5839 5841 5845 5847 5849 5852 5854 5855 5855 5854 5854 5857 5860 5860 5862 5864 5865 5867 5867 5867 5867 5867 5867 5866 5866 5866 5864 5864 5862 5860 5858 5856 5852 5849 5845
5802 5807 5809 5815 5819 5823 5825 5826 5828 5829 5833 5836 5840 5841 5841 5841 5842 5844 5846 5845 5846 5850 5852 5854 5856 5858 5859 5859 5858 5858 5858 5857 5857 5857 5855 5854 5854 5852 5849 5846 5843 5839 5835
5787 5791 5794 5799 5801 5805 5808 5811 5814 5815 5822 5825 5827 5829 5829 5829 5828 5828 5827 5836 5836 5838 5842 5844 5845 5849 5850 5851 5852 5853 5851 5848 5846 5847 5847 5847 5845 5842 5840 5836 5833 5829 5825
5772 5773 5778 5782 5785 5789 5793 5798 5801 5801 5805 5811 5817 5819 5823 5819 5817 5809 5785 5790 5817 5829 5828 5827 5832 5836 5838 5839 5840 5840 5839 5835 5839 5838 5837 5838 5837 5834 5831 5828 5824 5819 5816
5757 5762 5762 5760 5769 5773 5776 5781 5785 5788 5791 5795 5800 5804 5809 5808 5807 5809 5809 5814 5812 5813 5798 5800 5818 5826 5822 5829 5831 5832 5834 5820 5830 5830 5830 5830 5829 5828 5824 5821 5819 5813 5810
5743 5746 5750 5753 5755 5759 5764 5765 5770 5773 5776 5779 5783 5789 5793 5797 5799 5802 5804 5806 5804 5808 5812 5811 5814 5818 5821 5821 5820 5818 5815 5817 5819 5821 5824 5823 5821 5821 5818 5816 5813 5808 5804